Regional Weather Roundup
Issued by NWS Little Rock, AR

Home | Current Version | Previous Version | Graphics & Text | Print | Product List | Glossary On
Versions: 1 2 3 4 5 6 7 8 9 10 11 12 13 14 15 16 17 18 19 20 21 22 23 24 25 26 27 28 29 30 31
000
ASUS44 KLZK 281305
RWRLZK

WEATHER ROUNDUP FOR ARKANSAS
NATIONAL WEATHER SERVICE LITTLE ROCK AR
800 AM CDT FRI APR 28 2017

NOTE: "FAIR" INDICATES FEW OR NO CLOUDS BELOW 12,000 FEET WITH NO
SIGNIFICANT WEATHER AND/OR OBSTRUCTIONS TO VISIBILITY.

ARZ001-003-010-029-281400-
NORTHWEST ARKANSAS

CITY           SKY/WX    TMP DP  RH WIND       PRES   REMARKS
FAYETTEVILLE   CLOUDY    62  56  80 SE12G25   29.65S
FORT SMITH     PTSUNNY   60  53  77 E14       29.66F
HARRISON       CLOUDY    54  53  97 E8        29.73F
BENTONVILLE    CLOUDY    57  54  88 E13G18    29.67F
ROGERS         CLOUDY    57  53  86 E15       29.68F
SILOAM SPGS    CLOUDY    57  52  82 SE8       29.65S
HIGHFILL       CLOUDY    58  55  90 E10       29.66S
SPRINGDALE     CLOUDY    59  55  88 NE5       29.69R
$$

ARZ004-005-016-281400-
NORTH CENTRAL ARKANSAS

CITY           SKY/WX    TMP DP  RH WIND       PRES   REMARKS
BATESVILLE     CLOUDY    57  54  88 SE5       29.80S
FLIPPIN        CLOUDY   N/A N/A N/A E5        29.72F
MTN HOME       PTSUNNY   56  51  84 VRB7      29.75S
$$

ARZ040-041-281400-
WEST CENTRAL ARKANSAS

CITY           SKY/WX    TMP DP  RH WIND       PRES   REMARKS
MENA           CLOUDY    59  59 100 E3        29.71S
MOUNT IDA      CLOUDY    60  56  86 SE3       29.70S
$$

ARZ009-017-025-026-028-281400-
NORTHEAST ARKANSAS

CITY           SKY/WX    TMP DP  RH WIND       PRES   REMARKS
CORNING        PTSUNNY   59  55  88 E12       29.82F
JONESBORO      PTSUNNY   59  55  87 E9        29.82F
NEWPORT        PTSUNNY   60  56  86 E10         N/A
WALNUT RIDGE   CLOUDY    59  52  77 E12       29.80F
BLYTHEVILLE    PTSUNNY   59  56  89 E7        29.84F
$$

ARZ022-023-033-042-044-281400-
CENTRAL ARKANSAS

CITY           SKY/WX    TMP DP  RH WIND       PRES   REMARKS
LITTLE ROCK    CLOUDY    59  58  96 E9        29.76F
N LITTLE ROCK    N/A     59  56  90 E8        29.76F
JACKSONVILLE   CLOUDY    60  58  93 E9        29.75F
CONWAY           N/A     61  57  88 VRB3      29.74S
SEARCY         CLOUDY    60  57  89 E6        29.79F
HOT SPRINGS    CLOUDY    60  57  89 E7        29.74S
RUSSELLVILLE   CLOUDY    59  54  83 VRB7      29.73R
CLINTON          N/A     57  55  94 CALM      29.77S
$$

ARZ036-281400-
EAST ARKANSAS

CITY           SKY/WX    TMP DP  RH WIND       PRES   REMARKS
WEST MEMPHIS   SUNNY     62  58  86 E5        29.81S
$$

ARZ050-053-066-070-073-281400-
SOUTHWEST ARKANSAS

CITY           SKY/WX    TMP DP  RH WIND       PRES   REMARKS
ARKADELPHIA    CLOUDY    60  58  92 NE5       29.75R
CAMDEN         CLOUDY    63  57  82 SE6       29.73R
TEXARKANA      CLOUDY    61  59  93 E3        29.71R
EL DORADO      CLOUDY    65  62  90 SE5       29.72R
DE QUEEN       CLOUDY    61  58  90 E9        29.67R
$$

ARZ056-057-069-281400-
SOUTHEAST ARKANSAS

CITY           SKY/WX    TMP DP  RH WIND       PRES   REMARKS
PINE BLUFF     CLOUDY    62  58  86 E7        29.76S
STUTTGART      PTSUNNY   61  50  67 E8        29.77F
MONTICELLO     CLOUDY    64  61  90 SE6       29.75R

$$






USA.gov is the U.S. government's official web portal to all federal, state and local government web resources and services.